Doylestown, PA

12:14 AM EST on December 15, 2019 (GMT -0500)
Doylestown

Weather History for KDYL - October, 2019

Change the Weather History Date:

Monday, October 28, 2019

  Actual Average (KTTN) Record (KTTN)
Temperature  
Mean Temperature 57 °F -  
Max Temperature 69 °F 58 °F 82 °F (1919)
Min Temperature 48 °F 39 °F 28 °F (1976)
Degree Days  
Heating Degree Days 8    
Growing Degree Days 7 (Base 50)    
Moisture  
Dew Point 48 °F    
Average Humidity 68    
Maximum Humidity 83    
Minimum Humidity 51    
Precipitation  
Precipitation 0.00 in - - ()
Sea Level Pressure  
Sea Level Pressure 30.16 in    
Wind  
Wind Speed 4 mph (North)    
Max Wind Speed 7 mph    
Max Gust Speed -    
Visibility 10 miles    
Events      
Averages and records for this station are not official NWS values.
T = Trace of Precipitation, MM = Missing Value Source: NWS Daily Summary

Daily Weather History Graph

Daily Weather History Graph

Search for Another Location

Airport or City:

Astronomy

Oct. 28, 2019 Rise Set
Actual Time 7:25 AM EDT 6:02 PM EDT
Civil Twilight 6:57 AM EDT 6:30 PM EDT
Nautical Twilight 6:25 AM EDT 7:02 PM EDT
Astronomical Twilight 5:53 AM EDT 7:34 PM EDT
Moon 7:43 AM EDT (10/28) 6:46 PM EDT (10/28)
Length of Visible Light 11h 33m
Length of Day
10h 37m
New Moon, 0% of the Moon is Illuminated
Oct 28
New Moon
Nov 4
First Quarter
Nov 12
Full
Nov 19
Last Quarter
Nov 26
New

Hourly Weather History & Observations

Time (EDT) Temp. Dew Point Humidity Pressure Visibility Wind Dir Wind Speed Gust Speed Precip Events Conditions
12:54 AM 57.0 °F 45.0 °F 64% 29.95 in 10.0 mi WNW 5.8 mph - N/A   Clear
1:54 AM 55.9 °F 45.0 °F 67% 29.97 in 10.0 mi NW 6.9 mph - N/A   Clear
2:54 AM 55.0 °F 45.0 °F 69% 29.99 in 10.0 mi NW 4.6 mph - N/A   Clear
3:54 AM 55.0 °F 46.0 °F 72% 30.01 in 10.0 mi NNW 4.6 mph - N/A   Clear
4:54 AM 55.0 °F 45.0 °F 69% 30.03 in 10.0 mi NNW 5.8 mph - N/A   Mostly Cloudy
5:54 AM 54.0 °F 45.0 °F 72% 30.06 in 10.0 mi North 4.6 mph - N/A   Clear
6:54 AM 52.0 °F 45.0 °F 77% 30.08 in 10.0 mi Calm Calm - N/A   Clear
7:54 AM 48.9 °F 44.1 °F 83% 30.12 in 10.0 mi Calm Calm - N/A   Clear
8:54 AM 53.1 °F 46.0 °F 77% 30.15 in 10.0 mi Calm Calm - N/A   Clear
9:54 AM 62.1 °F 46.9 °F 58% 30.16 in 10.0 mi NNE 6.9 mph - N/A   Partly Cloudy
11:54 AM 64.9 °F 46.9 °F 52% 30.19 in 10.0 mi NNE 5.8 mph - N/A   Clear
12:54 PM 66.9 °F 48.0 °F 51% 30.18 in 10.0 mi Variable 3.5 mph - N/A   Partly Cloudy
1:54 PM 64.9 °F 48.0 °F 54% 30.17 in 10.0 mi Variable 3.5 mph - N/A   Scattered Clouds
2:54 PM 64.9 °F 48.9 °F 56% 30.18 in 10.0 mi Variable 3.5 mph - N/A   Overcast
4:54 PM 62.1 °F 50.0 °F 65% 30.20 in 10.0 mi SSE 5.8 mph - N/A   Overcast
5:54 PM 61.0 °F 48.9 °F 64% 30.20 in 10.0 mi Calm Calm - N/A   Overcast
6:54 PM 60.1 °F 48.0 °F 64% 30.22 in 10.0 mi Calm Calm - N/A   Overcast
7:54 PM 60.1 °F 48.0 °F 64% 30.23 in 10.0 mi Calm Calm - N/A   Overcast
8:06 PM 60.1 °F 48.0 °F 64% 30.23 in 10.0 mi Calm Calm - N/A   Overcast
8:39 PM 60.1 °F 48.9 °F 67% 30.24 in 10.0 mi Calm Calm - N/A   Overcast
8:54 PM 60.1 °F 48.9 °F 67% 30.24 in 10.0 mi Calm Calm - N/A   Overcast
10:27 PM 57.0 °F 51.1 °F 81% 30.27 in 10.0 mi SE 5.8 mph - N/A   Overcast
10:54 PM 57.0 °F 51.1 °F 81% 30.27 in 10.0 mi Variable 3.5 mph - N/A   Overcast
11:18 PM 57.0 °F 50.0 °F 77% 30.27 in 10.0 mi Calm Calm - N/A   Overcast
11:54 PM 55.9 °F 50.0 °F 80% 30.27 in 10.0 mi Variable 3.5 mph - N/A   Overcast